Regional Weather Roundup
Issued by NWS Wakefield, VA

Home | Current Version | Previous Version | Text Only | Print | Product List | Glossary Off
Versions: 1 2 3 4 5 6 7 8 9 10 11 12 13 14 15 16 17 18 19 20 21 22 23 24 25 26 27

000
ASUS41 KAKQ 192110
RWRAKQ

REGIONAL WEATHER ROUNDUP
NATIONAL WEATHER SERVICE WAKEFIELD VA
500 PM EDT SAT APR 19 2014

Note: "fair" indicates few or no clouds below 12,000 feet with no
significant weather and/or obstructions to visibility. * = Denotes
station may not report precipitation (e.g., rain,snow,etc.),
thunder or fog.

VAZ042-051-052>054-056-192200-
NORTHERN VIRGINIA

CITY           SKY/WX    TMP DP  RH WIND       PRES   REMARKS
WASH NATIONAL  CLOUDY    70  32  24 NE10      30.22S
DULLES         CLOUDY    66  33  29 NE10      30.23S
FORT BELVOIR   CLOUDY    70  29  21 VRB7      30.22S
QUANTICO       CLOUDY    68  38  33 NE5       30.23S
FREDERICKSBRG* CLOUDY    68  37  32 E7        30.21R
STAFFORD*      CLOUDY    67  38  34 CALM      30.26R
WARRENTON      CLOUDY    69  46  43 NE7       30.22R
CULPEPER*      CLOUDY    70  32  24 NE6       30.23R
MANASSAS*      PTSUNNY   70  36  28 N9        30.22R
LEESBURG*      PTSUNNY   68  37  32 NE9       30.24R
WINCHESTER     PTSUNNY   64  32  29 NE6       30.23R
$$

VAZ048-049-060>072-079>083-192200-
CENTRAL AND SOUTH CENTRAL VIRGINIA...AND NORTH CENTRAL NORTH CAROLINA

CITY           SKY/WX    TMP DP  RH WIND       PRES   REMARKS
RICHMOND       CLOUDY    65  38  36 NE12G21   30.22R
CHESTERFIELD*  NOT AVBL
HANOVER        CLOUDY    64  36  35 VRB6      30.24R
TAPPAHANNOCK*  CLOUDY    64  37  37 NE8       30.23S
CHARLOTTSVILLE CLOUDY    65  38  36 E8        30.22R
ORANGE*        CLOUDY    64  37  36 N8        30.24R
LOUISA*        CLOUDY    64  41  42 E7        30.21S
FARMVILLE*     CLOUDY    64  39  39 NE14      30.19F
SOUTH HILL*    CLOUDY    57  46  67 CALM      30.24F
ROANOKE RAPIDS CLOUDY    54  45  71 NE9       30.20S
RALEIGH        CLOUDY    52  46  80 NE9       30.17F
$$

VAZ088>098-192200-
SOUTHEAST VIRGINIA

CITY           SKY/WX    TMP DP  RH WIND       PRES   REMARKS
NORFOLK        CLOUDY    50  41  71 NE13      30.21S
VIRGINIA BEACH CLOUDY    50  39  66 NE16G22   30.20S
NORFOLK NAVAL  CLOUDY    52  42  69 NE13      30.23S
WEST POINT*    CLOUDY    64  40  40 NE7       30.23F
NEWPORT NEWS   CLOUDY    58  44  60 NE8       30.22S
LANGLEY AFB    CLOUDY    53  48  83 NE10      30.22F
FORT EUSTIS    CLOUDY    57  46  66 E8        30.20S
WILLIAMSBURG*  CLOUDY    63  46  55 E5        30.23R
FRANKLIN*      CLOUDY    55  45  67 NE6       30.22S
WAKEFIELD      CLOUDY    58  43  57 VRB3      30.22S
$$

VAZ020-022-025-037-045-192200-
WESTERN AND SOUTHWEST VIRGINIA

CITY           SKY/WX    TMP DP  RH WIND       PRES   REMARKS
STAUNTON*      CLOUDY    63  38  39 NE7       30.24R
HOT SPRINGS VA CLOUDY    54  37  54 E7        30.29R
LYNCHBURG      CLOUDY    66  41  40 NE10      30.23R
DANVILLE       CLOUDY    63  42  46 NE8       30.20S
MARTINSVILLE   CLOUDY    64  40  42 NE12G18   30.21F
ROANOKE        CLOUDY    62  40  44 SE10      30.22S
BLACKSBURG     CLOUDY    63  43  48 E9G16     30.22F
DUBLIN*        CLOUDY    62  37  39 E10       30.20S
MARION*        CLOUDY    61  33  34 E10       30.20F
HILLSVILLE*    CLOUDY    61  28  29 NE10      30.22S
RICHLANDS*     CLOUDY    68  32  26 E7        30.17F
WISE*          CLOUDY    66  28  24 N5        30.18F
ABINGDON*      CLOUDY    67  33  27 SE13G20   30.15S
$$

MDZ021>025-VAZ099-100-192200-
SOUTHERN MARYLAND AND THE DELMARVA PENINSULA

CITY           SKY/WX    TMP DP  RH WIND       PRES   REMARKS
PATUXENT RIVER CLOUDY    63  39  41 N8        30.22F
BAY BRIDGE APT CLOUDY    63  36  36 N6        30.23S
LEONARDTOWN    CLOUDY    63  37  39 CALM      30.24S
DOVER          PTSUNNY   66  35  30 N14G21    30.19S
GEORGETOWN     CLOUDY    65  36  34 NE8       30.23S
EASTON         CLOUDY    68  39  34 NE5       30.25F
CAMBRIDGE      CLOUDY    66  36  32 N5        30.22R
SALISBURY      CLOUDY    63  41  44 SE8       30.23S
OCEAN CITY     CLOUDY    55  34  45 E9        30.25S
WALLOPS ISLAND CLOUDY    57  38  48 E14       30.24S
ACCOMACK*      CLOUDY    55  37  50 E8        30.22S
$$

NCZ012>017-030>032-192200-
EASTERN NORTH CAROLINA

CITY           SKY/WX    TMP DP  RH WIND       PRES   REMARKS
ELIZABETH CITY CLOUDY    52  39  61 NE15      30.18S
AHOSKIE*       CLOUDY    51  40  65 N12       30.20F
EDENTON*       DRIZZLE   50  43  77 NE8       30.18S
CURRITUCK*     DRIZZLE   50  44  80 N10G16    30.20R
KILL DEVIL HLS DRIZZLE   49  46  88 NE8G17    30.14S
MANTEO         CLOUDY    49  46  87 NE15G21   30.15S
CAPE HATTERAS  CLOUDY    53  52  96 NE13G25   30.09F FOG
GOLDSBORO      CLOUDY    50  48  93 NE10G23   30.12S
WASHINGTON     CLOUDY    50  46  85 NE8       30.16S
GREENVILLE     CLOUDY    52  45  76 NE9       30.17S
NEW BERN       CLOUDY    52  48  86 NE15G23   30.11F
WILMINGTON     CLOUDY    58  52  80 NE21G28   30.03F
$$

VAZ048-192200-
ELSEWHERE

CITY           SKY/WX    TMP DP  RH WIND       PRES   REMARKS
HARRISBURG PA  PTSUNNY   66  24  20 NE6       30.25F
BALTIMORE      CLOUDY    66  33  29 E13       30.22S
ANNAPOLIS      CLOUDY    64  31  28 E10       30.23S
ANDREWS AFB    CLOUDY    65  38  36 E9        30.22S
WILMINGTON DE  PTSUNNY   67  23  19 N12G21    30.24S
PHILADELPHIA   CLOUDY    66  20  17 N12       30.24S
WILDWOOD NJ*   CLOUDY    55  37  50 SE9       30.26S
ATLANTIC CITY  PTSUNNY   58  35  42 E10       30.25R
HENDERSON NC   CLOUDY    53  43  70 NE10      30.19F
GREENSBORO     CLOUDY    60  40  47 NE16      30.16F
ROCKY MOUNT    CLOUDY    53  45  74 N17G23    30.17F
FAYETTEVILLE   CLOUDY    51  49  92 NE16      30.11F FOG
CHARLOTTE      RAIN      51  50  96 N10       30.16R FOG
$$

VAZ100-192200-
MARINE

STATION/POSITION TIME  TEMP    WIND        PRES    WAVE   SWELL
                       AIR SEA DIR/SP/G            HT/PER HT/PER
                 (UTC) (F)     (DEG/KT/KT) (MB)    (FT/S) (FT/S)
44066 TX TWR #4  2100   46 45  300/  4/  4 1024.4R   4/10   5/10
CAPE MAY NJ      2100   54 54  130/ 11/ 13 1023.8S
LEWES DE         2100   55 49  130/  8/ 11 1023.0S
15NM E FENWICK I 2100   49 48              1024.0F   4/11
OCEAN-CITY-INLET 2100   53 48   50/  4/  7 1023.5F
WACHAPREAGUE VA  2100   54 53   50/ 15/ 18 1023.1S
THOMAS POINT MD  2100   59 54   CALM  /  3 1024.1S
GOOSES REEF MD   2100   56     280/  4/  4 1024.9S
COVE POINT MD    2100   56     330/  6/  7 1023.4S
SOLOMONS ISLAND  2100      53                N/A
BISHOPS HEAD MD  2100   63 56   80/  5/  6 1023.0R
PINEY POINT MD   2100          140/  6/  6   N/A
POTOMAC MD       2100   59      30/  4/  6 1023.0R
CAMBRIDGE MD     2100   62 55  330/  6/  7 1022.6F
LEWISETTA VA     2100   60 54  350/  3/  5 1023.3S
RAPPAHANNOCK LGT 2100          350/  8/  9 1023.6S
STINGRAY PT      2100   54      30/  8/  8 1023.3F
YORK RVR RNG VA  2100   53      60/  9/ 10 1022.4F
YORKTOWN VA      2100   54 55   90/  7/  8 1023.0F
JAMESTOWN VA     2100   57      80/  6/ 10   N/A
DOMINION TERM VA 2100   53      50/  7/ 11 1023.1F
KIPTOPEKE VA     2100      52   60/  5/ 16   N/A
CHES BAY BRIDGE  2100   49 52   30/ 14/ 17 1022.8R
CAPE HENRY VA    2100   48      40/ 15/ 18   N/A
CHESAPEAKE LGHT  2000   46      40/ 18/ 20 1023.0F
WILLOUBY STN VA  2100   50      50/ 12/ 13 1022.2F
S CRANEY ISL VA  2100           20/ 14/ 18 1023.0S
CAPE HENRY BUOY  2100      47                N/A     4/11   2/11
1ST LANDING BUOY 2100      46                N/A     4/11   3/11
64NM E OF VA BCH 2100   50 48   20/ 17/ 19 1020.8F   7/11   5/11
DUCK PIER NC     2100   48 49   30/ 19/ 22 1020.1S
44100 DUCK FRF   2100      48                N/A     6/11   2/11
44056 DUCK FRF   2100      47                N/A     6/ 5   2/12
OREGON INLET NC  2100   49 51   10/ 13/ 17 1020.2F
HATTERAS NC      2100   54 56   30/ 16/ 22 1018.8F
CAPE LOOKOUT NC  2000   58      30/ 28/ 33 1017.3F
FRYING PAN SHLS  2100   63 65   40/ 27/ 35 1012.7S  10/ 7
$$



USA.gov is the U.S. government's official web portal to all federal, state and local government web resources and services.